Temperature
18 15 14 14 13 16 16 16 16 15 13 11 10 11 12 13 11 10 11 12 13 13 14 12 11 10 9 8 8 7 7 6 6 5 4 4 3 2 1 1 0 -0 -1 -2
15 15 16 16 16 16 16 16 16 15 13 12 11 11 12 12 11 11 11 13 14 14 14 13 11 10 9 9 8 8 7 7 6 5 4 4 3 2 2 1 0 -1 -1 -2
17 16 17 17 16 17 16 16 15 15 14 12 12 12 13 13 12 12 13 14 15 15 15 14 13 12 11 10 9 9 8 7 6 5 4 3 3 2 2 1 0 -1 -1 -2
17 16 16 16 16 16 15 15 15 15 13 11 13 11 13 13 12 11 13 14 15 16 16 15 14 13 12 12 11 9 8 7 6 5 4 3 3 2 1 1 0 -1 -1 -2
16 15 15 15 16 16 15 15 14 14 13 12 11 12 13 13 13 13 13 16 18 18 17 16 16 15 14 13 11 10 9 7 6 5 4 3 3 2 1 1 -0 -1 -2 -2
15 15 15 15 15 15 14 14 13 11 10 12 11 11 12 12 13 14 15 18 20 19 18 17 16 15 14 13 11 10 9 7 6 5 4 3 3 2 1 1 -0 -1 -2 -3
15 15 15 15 15 14 14 13 13 13 12 12 12 12 13 14 12 13 16 20 20 20 19 17 16 15 14 13 12 11 9 8 6 5 4 3 3 2 1 0 -0 -1 -2 -2
15 14 14 14 14 13 12 13 13 14 12 12 13 12 14 14 14 16 18 20 20 20 19 18 17 16 15 14 13 11 10 8 7 5 4 3 2 2 1 0 -1 -1 -2 -3
14 14 14 14 14 14 14 12 12 12 12 11 12 11 12 14 14 14 16 18 19 19 19 18 17 16 15 14 13 12 10 9 7 5 4 3 2 2 1 -0 -1 -1 -2 -3
15 14 14 13 13 13 13 12 10 11 12 11 11 11 13 15 14 13 12 15 19 19 19 18 17 17 16 14 13 11 10 8 7 5 4 3 2 2 1 -0 -1 -2 -2 -3
14 13 13 12 11 12 11 12 11 10 10 10 11 13 13 14 14 13 14 17 19 20 19 19 18 17 16 14 13 11 9 8 6 5 3 3 2 1 0 -0 -1 -2 -2 -3
13 11 11 12 12 11 11 11 10 11 11 9 8 13 14 12 12 13 15 17 19 20 19 19 18 17 15 14 13 11 10 8 6 5 3 3 2 1 0 -0 -1 -2 -3 -3
12 11 12 13 13 12 12 11 10 11 10 9 9 14 14 13 14 15 16 18 19 19 19 18 17 17 16 15 13 12 10 8 6 4 3 2 2 1 0 -1 -1 -2 -3 -3
11 10 11 13 13 12 12 12 11 10 10 9 10 14 15 16 15 15 18 18 18 18 18 18 17 17 16 15 13 12 10 8 6 4 3 2 2 1 0 -1 -2 -2 -3 -3
9 9 9 10 11 11 11 12 11 11 12 12 13 14 16 17 15 15 17 17 17 17 18 18 17 17 16 15 14 12 10 8 6 4 3 2 2 1 -0 -1 -2 -2 -3 -3
7 9 9 10 11 10 10 11 12 12 12 12 13 14 16 16 15 15 15 16 16 17 17 17 17 17 16 15 14 13 11 9 7 5 3 2 2 1 -0 -1 -2 -2 -3 -3
7 7 8 8 10 11 10 12 13 11 10 11 12 14 14 13 12 13 15 16 16 17 17 17 17 17 16 15 14 13 12 10 7 5 4 2 1 0 -0 -1 -2 -2 -3 -3
7 7 7 7 10 10 13 13 12 12 12 11 12 13 13 12 14 15 15 16 16 17 17 17 17 16 16 15 14 13 11 9 7 5 4 3 1 1 -0 -1 -2 -2 -3 -3
7 8 8 6 7 9 10 12 12 11 12 12 12 13 13 13 12 15 18 18 17 17 17 16 16 15 15 14 13 12 11 9 7 6 4 3 2 1 -0 -1 -1 -2 -3 -3
6 7 7 6 6 8 11 13 13 13 12 14 12 12 12 11 11 14 18 17 17 16 16 15 15 14 14 14 13 12 11 9 8 7 5 3 2 1 -0 -1 -1 -2 -3 -3
6 6 5 6 6 8 10 12 13 13 14 15 15 14 14 11 13 16 16 16 15 15 15 14 14 14 14 13 12 11 10 10 9 7 5 3 2 1 -0 -1 -2 -2 -3 -3
6 5 4 5 5 8 10 10 11 13 15 15 15 15 14 14 14 15 15 15 14 14 14 13 13 13 13 12 11 11 10 10 8 6 5 3 2 1 -0 -1 -2 -2 -3 -3
7 8 8 7 10 11 12 12 14 14 14 15 14 14 14 13 14 14 14 14 13 13 13 12 12 12 12 12 11 10 10 8 7 5 4 3 2 0 -1 -1 -2 -2 -3 -3
7 7 7 7 8 10 12 13 14 14 14 14 13 13 13 13 13 12 12 12 12 11 11 11 11 11 11 11 10 10 9 7 6 5 4 3 1 0 -1 -1 -2 -2 -2 -3
8 8 7 8 8 10 12 13 13 13 13 12 12 12 12 11 11 11 11 10 10 10 10 10 10 10 10 10 10 9 8 6 5 4 3 2 1 0 -1 -1 -1 -2 -2 -3
8 8 8 9 10 10 11 11 11 11 11 11 11 11 10 10 10 10 9 9 9 9 9 9 9 9 10 9 9 8 7 6 4 3 2 1 0 -0 -1 -1 -2 -2 -3 -3
Wind_Speed
2 3 4 8 9 6 4 5 6 6 5 8 11 17 19 9 12 15 13 14 17 21 17 14 15 15 15 16 16 17 14 12 9 5 4 3 3 3 4 8 10 10 9 8
3 4 7 5 5 5 4 4 5 4 3 6 8 14 15 10 10 13 16 18 19 17 13 14 14 15 18 20 19 18 17 15 12 7 4 3 4 3 5 7 7 9 9 8
5 5 3 3 4 5 4 4 4 4 3 4 6 11 9 6 6 9 11 13 13 18 18 16 17 19 19 21 22 20 18 16 13 9 5 3 3 1 2 3 4 8 8 8
4 3 3 4 5 5 5 3 1 1 2 5 3 6 9 7 7 9 13 13 16 17 16 15 17 18 21 22 19 18 17 15 13 11 9 8 6 6 6 4 4 7 8 8
5 4 5 7 6 6 5 2 1 0 1 4 4 4 11 4 8 13 14 15 18 17 16 16 18 20 20 18 18 16 16 15 14 13 12 9 7 6 4 4 5 5 7 8
6 3 5 5 1 1 3 4 3 4 3 4 7 7 9 7 10 10 11 13 15 15 14 15 13 12 13 13 15 15 17 16 15 14 12 11 10 9 7 6 6 5 4 6
5 4 3 3 3 1 3 4 4 4 2 7 4 6 11 12 11 11 12 13 14 13 12 12 12 14 15 17 18 17 18 16 15 15 13 12 11 10 10 8 7 6 5 4
4 7 5 5 7 6 6 7 6 5 5 6 5 8 11 11 10 11 11 10 10 11 11 13 14 15 16 18 19 19 20 16 17 16 14 11 11 8 7 9 7 7 6 6
6 6 1 3 3 5 5 6 7 5 3 6 8 9 12 8 7 8 10 9 12 12 12 13 12 13 15 18 21 22 21 17 17 16 13 11 11 10 9 9 8 6 6 7
7 6 4 1 1 3 3 5 5 5 4 7 8 8 7 9 10 10 11 13 14 12 11 11 11 14 15 16 17 17 18 18 14 15 14 12 11 10 9 8 9 8 7 9
5 5 4 1 7 9 6 5 6 5 4 6 6 9 8 10 10 12 16 15 15 14 14 14 13 13 12 12 14 16 16 15 14 15 13 11 11 10 9 8 9 8 7 7
5 4 6 9 5 5 8 9 9 6 7 6 5 11 9 11 11 11 14 13 12 12 11 11 11 10 12 15 15 17 17 16 16 15 13 12 10 9 9 9 9 8 8 7
6 4 3 7 2 2 5 6 8 5 3 5 7 13 6 8 9 8 11 12 11 11 11 9 9 12 14 16 16 17 18 17 15 14 13 12 11 11 11 10 9 8 8 8
5 6 8 10 8 6 7 6 8 8 6 8 15 22 21 20 16 12 11 12 11 11 11 10 10 12 14 15 16 17 17 16 15 14 14 14 14 13 11 9 8 8 8 7
5 6 8 10 11 7 9 12 11 15 15 16 19 23 29 25 14 11 11 12 12 12 11 12 13 13 13 14 15 16 16 16 16 15 15 15 13 11 9 9 9 8 8 8
5 5 4 7 10 11 11 17 20 19 16 19 25 27 29 22 11 10 12 12 12 13 12 13 13 13 14 16 17 17 17 17 16 17 16 13 11 11 11 10 9 8 8 7
7 7 4 7 6 6 10 15 18 11 11 12 18 21 20 16 13 11 11 11 12 13 13 13 13 14 16 17 17 19 18 16 17 17 15 14 13 13 12 11 9 9 8 7
11 8 5 5 2 11 11 6 9 11 14 15 16 19 17 13 10 10 10 12 14 13 12 12 11 12 13 13 14 14 14 16 18 17 15 14 14 13 11 11 11 10 7 7
8 8 6 4 6 11 10 9 7 9 11 12 17 20 17 8 7 9 9 9 12 12 11 11 10 10 9 11 12 13 15 16 17 18 17 16 15 14 13 13 12 9 7 8
3 4 5 5 6 10 9 5 2 1 9 8 6 10 7 2 4 7 8 6 8 10 9 9 8 7 8 9 11 14 16 18 20 20 18 16 16 15 15 14 12 9 8 8
4 4 7 9 10 12 10 4 4 5 9 5 3 4 2 5 8 9 10 10 11 11 12 10 9 9 10 9 12 16 17 21 20 15 15 16 16 16 14 12 10 9 8 7
11 9 9 8 8 13 7 7 9 9 5 6 7 7 7 9 12 13 13 13 13 13 13 11 10 12 9 10 14 17 20 18 13 14 16 17 16 14 13 12 11 9 8 8
10 11 8 13 13 7 5 10 8 6 9 10 9 11 10 11 13 14 13 13 13 13 12 10 10 12 10 11 15 19 18 13 14 16 17 15 15 14 12 13 12 9 8 7
8 7 7 9 12 12 11 10 11 12 12 13 13 14 12 13 15 15 14 13 12 12 12 10 10 12 13 12 16 19 13 13 16 17 16 15 15 14 13 11 10 9 9 8
9 7 9 14 12 11 11 10 10 11 12 14 15 14 12 12 13 13 13 13 12 11 11 10 10 13 16 12 14 15 12 14 16 16 16 15 15 14 14 13 11 11 10 9
13 15 18 24 16 15 15 13 15 16 14 14 14 13 11 10 12 12 12 11 11 11 11 11 11 13 15 12 13 13 14 16 17 15 15 13 12 12 12 11 10 15 13 15
Wind_Direction
94 86 219 221 206 218 225 233 261 259 190 190 237 262 273 235 216 231 230 225 226 230 227 213 206 196 187 185 184 183 180 178 167 159 165 177 203 215 238 250 245 234 237 250
39 256 230 196 204 229 238 273 274 282 197 208 270 276 271 236 213 223 226 227 229 234 227 215 204 195 192 190 189 187 186 182 180 175 166 167 169 194 225 237 230 230 240 254
228 239 192 196 227 241 263 243 251 273 340 264 303 300 280 254 221 233 229 229 230 229 228 217 207 201 197 196 193 192 188 184 182 171 151 140 136 180 223 223 227 236 248 261
244 231 203 213 236 199 253 211 193 289 335 291 221 287 286 260 257 248 239 232 235 233 228 218 210 205 203 201 193 189 185 182 179 170 170 169 182 199 213 211 221 244 256 259
261 205 207 224 235 198 217 175 189 188 207 298 235 220 280 272 257 255 243 234 236 234 225 220 213 210 206 195 189 186 181 181 178 177 177 178 192 202 210 218 235 245 252 255
243 213 208 215 180 129 122 65 57 52 73 284 225 189 273 234 218 239 241 232 231 231 225 224 216 203 195 184 183 181 181 183 181 181 181 185 192 199 208 221 233 241 242 252
290 260 228 156 152 61 109 88 349 325 324 256 232 212 249 245 223 218 223 228 228 225 220 218 207 197 191 185 186 185 185 186 185 185 188 192 194 195 206 215 224 230 237 243
283 286 227 202 193 187 189 159 179 238 253 286 288 238 254 257 250 234 234 236 234 227 219 216 208 199 194 190 188 187 190 189 187 190 195 194 192 195 206 211 212 220 228 238
213 263 216 190 202 182 188 208 183 162 258 269 267 277 296 268 261 235 232 237 238 232 224 219 209 199 194 192 192 191 191 190 191 193 193 194 193 196 203 208 212 221 229 244
185 252 266 212 28 251 210 155 117 156 232 263 279 271 253 271 253 243 238 236 241 239 234 226 214 206 200 197 194 192 192 193 190 191 194 199 197 199 200 203 215 222 231 243
175 216 274 286 213 206 168 192 190 185 195 202 265 266 231 241 247 239 237 235 236 234 231 227 220 208 197 189 190 193 194 193 191 193 194 193 194 196 197 206 217 224 231 237
177 155 255 252 239 197 188 199 168 186 236 214 234 266 261 254 263 251 251 250 245 240 236 228 214 195 192 195 195 197 197 197 197 193 192 196 192 191 199 211 219 222 230 235
149 142 302 321 302 227 230 220 196 185 184 212 231 267 271 284 284 266 258 264 262 256 248 232 208 202 204 203 201 201 200 200 195 190 192 194 196 198 206 212 217 220 227 236
129 180 201 229 238 201 222 228 201 186 217 240 238 259 273 275 275 274 268 263 263 257 248 233 222 217 212 207 204 203 203 198 193 191 193 199 202 203 206 207 211 217 224 237
148 224 239 254 262 246 241 248 229 218 225 239 255 257 267 272 275 262 262 268 268 260 247 234 230 225 217 211 209 206 203 198 194 193 198 204 201 197 198 204 209 216 226 242
175 220 258 271 259 248 252 254 249 242 237 242 258 267 266 276 282 271 268 268 268 262 253 244 236 228 221 216 212 207 204 199 193 197 202 199 192 193 200 205 210 218 230 242
190 191 219 265 281 312 263 238 238 226 217 217 246 258 271 279 273 265 264 260 256 259 259 253 242 233 228 219 211 208 204 194 194 199 199 194 192 197 202 207 211 221 230 240
174 173 201 259 292 243 247 237 225 233 246 230 246 261 269 269 279 266 255 256 263 263 263 261 253 242 232 219 210 205 195 194 198 200 198 194 192 197 199 204 216 223 226 236
177 172 197 210 246 269 287 271 219 218 269 242 244 263 276 300 307 294 268 241 246 258 263 266 261 250 235 215 201 192 196 197 201 203 200 195 191 193 196 208 218 221 223 236
102 150 185 202 227 252 252 258 168 127 287 279 241 265 295 50 328 289 307 315 287 282 279 279 279 259 239 215 186 192 201 202 208 206 201 194 191 193 200 208 213 214 219 233
166 191 205 221 237 261 259 256 139 213 254 314 334 300 287 222 241 266 298 301 292 290 287 283 272 256 243 205 187 203 208 214 212 200 192 190 192 195 199 202 205 210 218 229
187 190 205 197 221 256 237 157 196 233 303 310 310 303 290 272 273 281 287 286 288 289 288 282 269 262 245 200 197 212 220 218 198 189 191 192 191 191 194 196 202 206 213 225
207 205 206 204 225 253 196 215 250 288 289 292 294 296 295 287 284 286 284 284 286 283 282 278 265 267 254 213 206 222 227 202 187 190 194 193 190 190 188 192 198 201 207 219
241 227 232 250 256 264 268 259 262 262 264 276 284 289 289 282 283 287 288 288 288 286 284 282 274 267 264 234 220 229 222 189 189 195 195 192 190 190 191 193 196 200 204 212
242 247 254 264 271 283 265 262 273 285 289 290 288 289 288 285 285 286 290 289 288 287 286 282 272 268 268 253 232 228 209 189 195 197 195 193 193 190 192 197 201 202 206 205
239 246 257 268 271 273 282 285 288 289 289 292 296 299 300 295 288 289 290 291 292 294 292 291 282 275 274 264 246 227 205 196 196 198 197 194 191 190 191 193 202 216 213 223
Height
1565 1570 1573 1571 1570 1569 1568 1570 1570 1565 1563 1568 1567 1559 1547 1546 1547 1545 1544 1544 1544 1542 1545 1548 1549 1550 1551 1552 1552 1552 1553 1554 1555 1556 1556 1555 1553 1551 1549 1546 1544 1542 1539 1536
1570 1571 1565 1564 1565 1566 1566 1568 1567 1564 1563 1565 1564 1556 1541 1537 1537 1535 1536 1536 1536 1536 1538 1540 1542 1543 1543 1544 1544 1545 1546 1547 1549 1550 1551 1550 1548 1546 1544 1542 1540 1537 1535 1532
1566 1564 1562 1563 1564 1565 1564 1566 1565 1565 1563 1563 1565 1555 1539 1531 1531 1530 1529 1529 1529 1530 1530 1532 1534 1535 1536 1536 1536 1537 1539 1540 1542 1544 1545 1544 1543 1541 1539 1537 1535 1533 1530 1527
1562 1561 1562 1562 1563 1562 1566 1562 1562 1564 1568 1572 1566 1570 1541 1531 1529 1525 1522 1522 1521 1522 1524 1525 1527 1527 1527 1527 1529 1530 1532 1534 1536 1537 1538 1538 1537 1536 1534 1532 1530 1528 1526 1523
1562 1561 1561 1563 1560 1559 1560 1560 1562 1564 1567 1571 1567 1569 1544 1531 1528 1519 1514 1513 1514 1515 1517 1518 1519 1519 1520 1522 1522 1524 1525 1527 1529 1530 1531 1531 1531 1530 1528 1526 1525 1523 1521 1518
1559 1558 1558 1558 1557 1558 1559 1562 1564 1570 1573 1574 1562 1567 1549 1530 1519 1511 1506 1506 1507 1509 1511 1512 1513 1514 1514 1515 1515 1516 1518 1519 1521 1523 1524 1524 1524 1524 1522 1521 1519 1518 1515 1513
1560 1558 1555 1556 1558 1560 1561 1569 1576 1572 1577 1569 1553 1555 1535 1510 1505 1501 1499 1500 1501 1503 1504 1505 1506 1506 1506 1506 1507 1508 1510 1511 1513 1515 1516 1517 1518 1517 1516 1515 1513 1512 1510 1507
1566 1565 1555 1554 1556 1560 1563 1565 1575 1576 1576 1567 1550 1547 1520 1501 1497 1496 1496 1496 1497 1498 1498 1499 1499 1499 1499 1499 1500 1500 1501 1503 1505 1507 1509 1511 1511 1510 1509 1508 1507 1506 1504 1501
1564 1562 1553 1553 1553 1554 1557 1563 1561 1570 1570 1571 1555 1538 1517 1496 1494 1492 1492 1492 1491 1492 1492 1492 1493 1493 1493 1493 1493 1493 1494 1496 1498 1500 1502 1503 1504 1503 1503 1502 1501 1500 1498 1495
1555 1561 1553 1552 1553 1552 1554 1557 1566 1569 1571 1571 1556 1542 1522 1498 1494 1491 1489 1486 1485 1486 1486 1486 1486 1486 1486 1486 1487 1487 1487 1489 1491 1493 1495 1496 1497 1496 1496 1495 1495 1494 1492 1489
1553 1560 1556 1555 1555 1552 1556 1557 1557 1563 1566 1568 1561 1531 1502 1495 1489 1487 1483 1480 1479 1480 1480 1480 1480 1480 1480 1480 1480 1480 1480 1482 1483 1485 1487 1489 1490 1490 1489 1489 1489 1488 1486 1484
1552 1560 1561 1553 1546 1546 1548 1548 1554 1560 1557 1559 1560 1523 1492 1489 1484 1482 1479 1476 1476 1476 1476 1475 1475 1474 1473 1472 1472 1472 1472 1473 1475 1478 1480 1481 1482 1483 1482 1483 1483 1482 1480 1478
1552 1559 1561 1552 1551 1548 1546 1544 1545 1546 1550 1554 1552 1515 1487 1483 1479 1477 1475 1473 1472 1472 1471 1470 1469 1467 1466 1465 1464 1464 1464 1465 1468 1470 1472 1473 1474 1475 1476 1476 1476 1476 1474 1472
1549 1555 1557 1552 1544 1541 1542 1539 1539 1542 1546 1543 1529 1503 1485 1480 1476 1474 1473 1470 1468 1467 1465 1464 1462 1461 1459 1458 1457 1456 1456 1458 1460 1461 1463 1465 1467 1468 1469 1470 1470 1469 1468 1466
1548 1553 1550 1543 1538 1538 1536 1533 1531 1532 1525 1523 1504 1496 1478 1470 1470 1469 1467 1465 1463 1460 1458 1457 1456 1454 1452 1451 1449 1448 1448 1450 1451 1453 1454 1456 1460 1461 1462 1463 1463 1463 1462 1460
1547 1549 1546 1540 1532 1532 1531 1523 1518 1516 1513 1507 1497 1485 1468 1465 1466 1464 1462 1459 1456 1454 1452 1451 1450 1448 1446 1444 1442 1441 1440 1441 1442 1443 1445 1449 1452 1454 1455 1456 1457 1456 1455 1454
1546 1548 1547 1543 1533 1528 1526 1508 1502 1502 1498 1496 1491 1474 1463 1463 1461 1459 1456 1454 1451 1449 1448 1446 1445 1442 1440 1438 1436 1433 1432 1433 1433 1435 1437 1441 1444 1446 1448 1449 1450 1449 1449 1448
1538 1542 1544 1543 1533 1533 1500 1489 1489 1489 1484 1482 1476 1466 1461 1459 1457 1454 1451 1449 1447 1445 1444 1442 1440 1438 1435 1432 1429 1427 1425 1424 1424 1425 1428 1432 1435 1438 1440 1442 1442 1443 1443 1441
1527 1532 1537 1543 1538 1517 1500 1487 1484 1485 1479 1469 1467 1461 1457 1457 1455 1448 1446 1445 1445 1443 1442 1439 1436 1433 1429 1425 1422 1419 1417 1415 1415 1415 1418 1422 1426 1429 1432 1434 1435 1436 1436 1435
1528 1528 1534 1538 1536 1519 1492 1480 1478 1480 1479 1462 1461 1459 1458 1458 1460 1451 1446 1445 1443 1441 1438 1435 1431 1427 1423 1419 1415 1411 1408 1406 1404 1406 1409 1414 1418 1421 1423 1426 1428 1429 1429 1428
1530 1531 1532 1529 1526 1502 1485 1478 1479 1486 1473 1461 1459 1458 1457 1457 1454 1449 1445 1442 1439 1436 1433 1428 1424 1419 1415 1412 1407 1402 1399 1396 1397 1399 1402 1405 1408 1412 1415 1418 1420 1422 1422 1422
1517 1524 1525 1522 1522 1503 1475 1478 1477 1469 1462 1460 1457 1456 1454 1451 1447 1443 1439 1435 1432 1428 1425 1421 1415 1411 1407 1403 1398 1393 1389 1389 1390 1390 1391 1394 1398 1403 1406 1410 1412 1414 1415 1415
1504 1499 1497 1496 1486 1474 1471 1469 1466 1465 1461 1458 1455 1452 1450 1445 1440 1436 1432 1428 1424 1420 1416 1412 1407 1402 1398 1394 1389 1384 1381 1381 1380 1380 1382 1386 1390 1394 1398 1401 1404 1406 1408 1408
1492 1488 1489 1485 1474 1469 1466 1464 1462 1460 1457 1454 1451 1448 1444 1439 1433 1429 1425 1420 1416 1412 1408 1404 1399 1393 1389 1385 1380 1376 1374 1372 1371 1371 1373 1377 1380 1385 1389 1393 1397 1399 1400 1401
1484 1483 1480 1473 1467 1463 1459 1458 1456 1454 1451 1448 1445 1441 1437 1432 1427 1422 1417 1413 1409 1404 1400 1396 1390 1384 1380 1376 1371 1367 1365 1363 1362 1362 1364 1367 1371 1376 1380 1384 1388 1391 1394 1395
1474 1474 1472 1461 1460 1458 1452 1453 1451 1447 1444 1441 1437 1432 1429 1425 1420 1415 1410 1406 1401 1397 1392 1387 1382 1376 1371 1367 1362 1358 1355 1353 1352 1352 1355 1358 1362 1367 1372 1377 1381 1384 1387 1389